Location: Moscow
(55.7500°N, 37.5830°E)
Time: 16:36:19
(UTC+03:00)

Transit 2A - Pass Details

Date: 07 December 2021
Orbit: 591 x 967 km, 66.7° (Epoch: 21 January)

Event Time Altitude Azimuth Distance (km) Brightness Sun altitude
Rises 23:58:59 0° 199° (SSW) 3,358 - -56.6°
Reaches altitude 10° 00:01:24 10° 194° (SSW) 2,482 - -56.6°
Maximum altitude 00:06:58 50° 121° (ESE) 1,149 - -56.7°
Drops below altitude 10° 00:13:00 10° 48° (NE) 2,682 - -56.8°
Sets 00:15:41 0° 44° (NE) 3,653 - -56.8°
